Tracking 25612 objects as of 19-May-2022
HD Live streaming from Space Station
objects crossing your sky now

ARIANE 1 DEB

Track ARIANE 1 DEB now!
10-day predictions


NORAD ID: 39106
Int'l Code: 1986-019VU
Perigee: 789.5 km
Apogee: 884.5 km
Inclination: 98.6 °
Period: 101.5 minutes
Semi major axis: 7208 km
RCS: 0.0054 m2 (small)
Launch date: February 22, 1986
Source: France (FR)
Launch site: FRENCH GUIANA (FRGUI)

Note: This is SATELLITE DEBRIS
aabbcc
Your satellite tracking list
Your tracking list is empty




NASA's NSSDC Master Catalog

Two Line Element Set (TLE):
1 39106U 86019VU  22135.90239470  .00000240  00000-0  13283-3 0  9996
2 39106  98.5586 196.0690 0065900  56.3499 304.3941 14.18656018459933
Source of the keplerian elements: AFSPC